Letiště Praha loni odbavilo bezmála 4,4 milionu cestujících

17.01.22 Letecká doprava se pomalu vzpamatovává z cestovních omezení v souvislosti s pandemií onemocnění Covid-19. To dokazují i čísla za rok 2021 z Letiště Václava Havla Praha. Oproti roku 2020 bylo odbaveno téměř o dvacet procent více cestujících a počet pohybů letadel narostl o třináct procent. Celý článek

Čedok představí Čechům novou destinaci v Egyptě, z Prahy nabídne lety do Marsa Matrouh

12.01.22 Egypt je populárním cílem, který Češi tradičně volí pro svou dovolenou. Chcete ale vyrazit na místo, kde se turismus teprve probouzí? Čedok přidává od letošního srpna do své nabídky nejbližší egyptskou destinaci Marsa Matrouh, která bude v České republice novinkou. Kromě již oblíbených letovisek Marsa Alam a Hurghada u Rudého moře tak poprvé půjde během pobytových i poznávacích zájezdů navštívit také neprozkoumaný sever země u Středozemního moře Celý článek

Zprávy

aktualizováno

22.01.22 Celý článek

Všechny zprávy    

Všechny články

Kurzy

Kalendář akcí

ICAO Refresh Course / Kurz
27.01.22 Flying Academy Beranových 130 Praha
ICAO English Exam / Zkouška - každý pátek v měsíci
28.01.22 Flying Academy Beranových 130 Praha
ICAO Refresh Course / Kurz
03.02.22 Flying Academy Beranových 130 Praha
ICAO Refresh Course / Kurz
10.02.22 Flying Academy Beranových 130 Praha
Austro Control Exam PPL / ATPL
15.02.22 Flying Academy Beranových 130 Praha

Všechny akce

Zeptejte se odborníka

Zkušený personál jedné z největších leteckých škol Flying Academy je připraven Vám pomoci s jakýmikoli otázkami týkajícími se letectví.

Zeptejte se

Newsletter

Přihlaste se k odběru novinek.

Aktuální počasí

LKKB
LKKB 212300Z 24014KT 9999 BKN040 00/M04 Q1022

LKKV
LKKV 212300Z 25010KT 220V280 5000 -SN BR SCT004 BKN006 OVC033 M01/M02 Q1022

LKMT
LKMT 212330Z 24011KT 9999 BKN037 M02/M05 Q1018 NOSIG

LKPR
LKPR 212330Z 24018KT 9999 -SN FEW017 BKN040 M00/M03 Q1021 NOSIG

LKTB
LKTB 212330Z 26008KT CAVOK M01/M07 Q1021 NOSIG

Briefing

Kurzy měn

AUD AUD 15.43 Kč
EUR EUR 24.35 Kč
GBP GBP 29.11 Kč
HUF HUF 6.80 Kč
CHF CHF 23.52 Kč
USD USD 21.45 Kč